Location: Arcueil
(48.7999°N, 2.3326°E)
Time: 06:59:39
(UTC+00:00)

Tiangong - Visible Passes

Search period start: 05 June 2023 00:00
Search period end: 15 June 2023 00:00
Orbit: 386 x 391 km, 41.5° (Epoch: 05 June)

Date Brightness Start Highest point End Pass type
(mag) Time Alt. Az. Time Alt. Az. Time Alt. Az.
06 Jun -0.3 02:27:16 15° SSW 02:28:28 17° SSE 02:30:41 10° ESE visible
07 Jun 0.3 01:31:15 12° SE 01:31:15 12° SE 01:31:54 10° SE visible
07 Jun -0.6 03:03:53 10° SW 03:06:26 22° S 03:08:59 10° SE visible
08 Jun -0.6 02:07:28 19° S 02:08:02 20° S 02:10:29 10° ESE visible
09 Jun 0.4 01:11:26 12° SE 01:11:26 12° SE 01:11:50 10° ESE visible
09 Jun -0.7 02:43:42 12° SW 02:45:54 21° S 02:48:25 10° SE visible
10 Jun -0.7 01:47:43 21° S 01:47:43 21° S 01:49:56 10° SE visible
11 Jun -0.6 02:24:10 17° SW 02:25:09 19° S 02:27:31 10° SE visible
12 Jun 0.2 01:28:36 13° SE 01:28:36 13° SE 01:29:04 10° SE visible
12 Jun 0.0 03:01:31 10° SW 03:02:46 12° SSW 03:04:01 10° S visible
13 Jun 0.2 02:05:48 11° SSE 02:05:48 11° SSE 02:06:09 10° SSE visible
